Salida, CO

2:14 PM MDT on August 27, 2016 (GMT -0600)
Salida

Weather History for KANK - August, 2013

Change the Weather History Date:

Sunday, August 18, 2013

  Actual Average (KGUC) Record (KGUC)
Temperature  
Mean Temperature 70 °F -  
Max Temperature 85 °F 73 °F 84 °F (2002)
Min Temperature 55 °F 42 °F 37 °F (2008)
Cooling Degree Days 5    
Growing Degree Days 20 (Base 50)    
Moisture  
Dew Point 39 °F    
Average Humidity 37    
Maximum Humidity 59    
Minimum Humidity 14    
Precipitation  
Precipitation 0.00 in - - ()
Sea Level Pressure  
Sea Level Pressure 30.43 in    
Wind  
Wind Speed 7 mph (WNW)    
Max Wind Speed 21 mph    
Max Gust Speed 28 mph    
Visibility 10 miles    
Events      
Averages and records for this station are not official NWS values.
T = Trace of Precipitation, MM = Missing Value Source: NWS Daily Summary

Daily Weather History Graph

Daily Weather History Graph

Search for Another Location

Airport or City:

Trip Planner

Search our weather history database for the weather conditions in past years. The results will help you decide how hot, cold, wet, or windy it might be!

Date:

Astronomy

Aug. 18, 2013 Rise Set
Actual Time 6:21 AM MDT 7:53 PM MDT
Civil Twilight 5:53 AM MDT 8:21 PM MDT
Nautical Twilight 5:19 AM MDT 8:55 PM MDT
Astronomical Twilight 4:43 AM MDT 9:31 PM MDT
Moon 6:01 PM MDT (8/18) 3:34 AM MDT (8/18)
Length of Visible Light 14h 28m
Length of Day
13h 32m
Waxing Gibbous, 92% of the Moon is Illuminated
Aug 18
Waxing Gibbous
Aug 20
Full
Aug 28
Last Quarter
Sep 5
New
Sep 12
First Quarter

Hourly Weather History & Observations

Time (MDT) Temp. Dew Point Humidity Pressure Visibility Wind Dir Wind Speed Gust Speed Precip Events Conditions
12:15 AM 63.3 °F 37.9 °F 39% 30.42 in 10.0 mi SW 8.1 mph - N/A   Clear
12:35 AM 63.3 °F 38.3 °F 40% 30.42 in 10.0 mi WSW 5.8 mph - N/A   Clear
12:55 AM 61.0 °F 39.2 °F 45% 30.42 in 10.0 mi WSW 9.2 mph - N/A   Clear
1:15 AM 60.8 °F 39.4 °F 45% 30.42 in 10.0 mi WSW 5.8 mph - N/A   Clear
1:35 AM 60.6 °F 39.6 °F 46% 30.42 in 10.0 mi West 5.8 mph - N/A   Clear
1:55 AM 60.4 °F 39.4 °F 46% 30.42 in 10.0 mi West 4.6 mph - N/A   Clear
2:15 AM 61.9 °F 39.4 °F 43% 30.42 in 10.0 mi WNW 4.6 mph - N/A   Clear
2:35 AM 61.9 °F 38.1 °F 41% 30.42 in 10.0 mi West 3.5 mph - N/A   Clear
2:55 AM 61.0 °F 39.6 °F 45% 30.42 in 10.0 mi WNW 4.6 mph - N/A   Clear
3:15 AM 61.7 °F 36.7 °F 39% 30.42 in 10.0 mi NW 8.1 mph - N/A   Clear
3:35 AM 60.8 °F 36.3 °F 40% 30.42 in 10.0 mi NW 6.9 mph - N/A   Clear
3:55 AM 60.8 °F 35.1 °F 38% 30.42 in 10.0 mi WNW 8.1 mph - N/A   Clear
4:15 AM 60.8 °F 34.9 °F 38% 30.42 in 10.0 mi NW 11.5 mph - N/A   Clear
4:35 AM 61.2 °F 36.9 °F 40% 30.42 in 10.0 mi NW 9.2 mph - N/A   Clear
4:55 AM 61.5 °F 34.7 °F 37% 30.42 in 10.0 mi NNW 10.4 mph - N/A   Clear
5:15 AM 60.1 °F 35.2 °F 39% 30.43 in 10.0 mi WNW 4.6 mph - N/A   Clear
5:35 AM 58.1 °F 37.6 °F 46% 30.44 in 10.0 mi WNW 6.9 mph - N/A   Clear
5:55 AM 55.9 °F 39.2 °F 53% 30.44 in 10.0 mi West 5.8 mph - N/A   Clear
6:15 AM 58.5 °F 35.8 °F 43% 30.44 in 10.0 mi NNW 13.8 mph - N/A   Clear
6:35 AM 56.8 °F 36.3 °F 46% 30.45 in 10.0 mi NNW 10.4 mph - N/A   Clear
6:55 AM 56.5 °F 36.5 °F 47% 30.45 in 10.0 mi NNW 11.5 mph 16.1 mph N/A   Clear
7:15 AM 58.3 °F 36.7 °F 45% 30.45 in 10.0 mi NNW 10.4 mph - N/A   Clear
7:35 AM 59.7 °F 36.5 °F 42% 30.46 in 10.0 mi NNW 10.4 mph - N/A   Clear
7:55 AM 61.2 °F 36.5 °F 40% 30.46 in 10.0 mi NNW 10.4 mph - N/A   Clear
8:15 AM 62.2 °F 37.8 °F 40% 30.46 in 10.0 mi NNW 11.5 mph - N/A   Clear
8:35 AM 63.7 °F 37.2 °F 38% 30.46 in 10.0 mi NNW 10.4 mph - N/A   Clear
8:55 AM 65.3 °F 38.5 °F 37% 30.45 in 10.0 mi NNW 8.1 mph - N/A   Clear
9:15 AM 67.1 °F 39.6 °F 36% 30.45 in 10.0 mi North 5.8 mph - N/A   Clear
9:35 AM 68.5 °F 39.4 °F 34% 30.45 in 10.0 mi North 4.6 mph - N/A   Clear
9:55 AM 69.8 °F 39.9 °F 34% 30.45 in 10.0 mi North 4.6 mph - N/A   Clear
10:15 AM 72.1 °F 38.7 °F 30% 30.44 in 10.0 mi North 3.5 mph - N/A   Clear
10:35 AM 75.0 °F 38.3 °F 26% 30.44 in 10.0 mi North 4.6 mph - N/A   Clear
10:55 AM 76.8 °F 38.8 °F 25% 30.43 in 10.0 mi Calm Calm - N/A   Clear
11:15 AM 79.9 °F 35.8 °F 20% 30.42 in 10.0 mi ENE 3.5 mph - N/A   Clear
11:35 AM 80.8 °F 36.0 °F 20% 30.41 in 10.0 mi North 5.8 mph - N/A   Clear
11:55 AM 82.6 °F 33.6 °F 17% 30.40 in 10.0 mi NNE 6.9 mph - N/A   Clear
12:15 PM 84.6 °F 34.3 °F 17% 30.38 in 10.0 mi North 6.9 mph - N/A   Clear
12:35 PM 84.2 °F 35.1 °F 17% 30.37 in 10.0 mi WNW 4.6 mph - N/A   Clear
12:55 PM 85.6 °F 34.3 °F 16% 30.37 in 10.0 mi South 9.2 mph 16.1 mph N/A   Clear
1:15 PM 84.0 °F 33.1 °F 16% 30.37 in 10.0 mi South 8.1 mph - N/A   Clear
1:35 PM 84.2 °F 29.7 °F 14% 30.37 in 10.0 mi South 17.3 mph 24.2 mph N/A   Clear
1:55 PM 82.0 °F 32.4 °F 17% 30.38 in 10.0 mi SW 15.0 mph 21.9 mph N/A   Clear
2:15 PM 81.7 °F 32.2 °F 17% 30.37 in 10.0 mi SSW 11.5 mph 19.6 mph N/A   Clear
2:35 PM 81.0 °F 34.0 °F 18% 30.38 in 10.0 mi SW 12.7 mph 20.7 mph N/A   Clear
2:55 PM 80.1 °F 38.3 °F 22% 30.40 in 10.0 mi West 20.7 mph 27.6 mph N/A   Scattered Clouds
3:15 PM 77.9 °F 39.2 °F 25% 30.41 in 10.0 mi WNW 13.8 mph - N/A   Mostly Cloudy
3:35 PM 75.9 °F 37.9 °F 25% 30.41 in 10.0 mi North 11.5 mph 21.9 mph N/A   Overcast
3:55 PM 73.6 °F 39.4 °F 29% 30.43 in 10.0 mi NW 9.2 mph 23.0 mph N/A   Scattered Clouds
4:15 PM 75.0 °F 39.0 °F 27% 30.45 in 10.0 mi WNW 5.8 mph 20.7 mph N/A   Scattered Clouds
4:35 PM 74.5 °F 40.5 °F 29% 30.45 in 10.0 mi NNW 8.1 mph - N/A   Clear
4:55 PM 73.6 °F 41.2 °F 31% 30.46 in 10.0 mi WNW 9.2 mph - N/A   Clear
5:15 PM 71.8 °F 41.2 °F 33% 30.47 in 10.0 mi North 3.5 mph - N/A   Scattered Clouds
5:35 PM 70.2 °F 43.0 °F 37% 30.47 in 10.0 mi NNW 5.8 mph - N/A   Overcast
5:55 PM 68.7 °F 44.6 °F 42% 30.45 in 10.0 mi North 10.4 mph - N/A   Overcast
6:15 PM 69.1 °F 43.0 °F 39% 30.45 in 10.0 mi WNW 5.8 mph - N/A   Overcast
6:35 PM 69.1 °F 43.0 °F 39% 30.44 in 10.0 mi Calm Calm - N/A   Overcast
6:55 PM 70.7 °F 42.4 °F 36% 30.43 in 10.0 mi East 3.5 mph - N/A   Mostly Cloudy
7:15 PM 69.8 °F 43.2 °F 38% 30.44 in 10.0 mi Calm Calm - N/A   Scattered Clouds
7:35 PM 69.8 °F 42.6 °F 37% 30.44 in 10.0 mi Calm Calm - N/A   Scattered Clouds
7:55 PM 67.6 °F 43.7 °F 42% 30.44 in 10.0 mi SW 4.6 mph - N/A   Clear
8:15 PM 66.2 °F 44.1 °F 45% 30.45 in 10.0 mi Calm Calm - N/A   Clear
8:35 PM 64.8 °F 44.2 °F 47% 30.45 in 10.0 mi West 5.8 mph - N/A   Clear
8:55 PM 63.9 °F 45.0 °F 50% 30.46 in 10.0 mi Calm Calm - N/A   Clear
9:15 PM 62.1 °F 45.0 °F 53% 30.47 in 10.0 mi West 4.6 mph - N/A   Clear
9:35 PM 61.5 °F 45.5 °F 56% 30.47 in 10.0 mi West 4.6 mph - N/A   Clear
9:55 PM 60.6 °F 45.0 °F 56% 30.48 in 10.0 mi West 6.9 mph - N/A   Clear
10:15 PM 60.6 °F 44.6 °F 56% 30.48 in 10.0 mi WNW 4.6 mph - N/A   Clear
10:35 PM 60.4 °F 44.1 °F 55% 30.48 in 10.0 mi West 8.1 mph - N/A   Scattered Clouds
10:55 PM 59.4 °F 44.2 °F 57% 30.48 in 10.0 mi West 5.8 mph - N/A   Mostly Cloudy
11:15 PM 60.1 °F 43.9 °F 55% 30.48 in 10.0 mi West 5.8 mph - N/A   Mostly Cloudy
11:35 PM 58.6 °F 44.1 °F 58% 30.48 in 10.0 mi WSW 5.8 mph - N/A   Scattered Clouds
11:55 PM 58.1 °F 43.7 °F 59% 30.48 in 10.0 mi West 5.8 mph - N/A   Clear